Savoonga, AK

5:49 PM AKST on January 18, 2017 (GMT -0900)
Savoonga

Weather History for PASA - October, 2013

Change the Weather History Date:

Monday, October 21, 2013

  Actual Average Record
Temperature  
Mean Temperature 35 °F -  
Max Temperature 37 °F 31 °F 39 °F (2012)
Min Temperature 33 °F 26 °F 17 °F (2008)
Degree Days  
Heating Degree Days 30    
Moisture  
Dew Point 33 °F    
Average Humidity 89    
Maximum Humidity 93    
Minimum Humidity 81    
Precipitation  
Precipitation 0.03 in - - ()
Sea Level Pressure  
Sea Level Pressure 29.48 in    
Wind  
Wind Speed 17 mph (East)    
Max Wind Speed 24 mph    
Max Gust Speed 32 mph    
Visibility 10 miles    
Events      
Averages and records for this station are not official NWS values.
T = Trace of Precipitation, MM = Missing Value Source: NWS Daily Summary

Daily Weather History Graph

Daily Weather History Graph

Search for Another Location

Airport or City:

Trip Planner

Search our weather history database for the weather conditions in past years. The results will help you decide how hot, cold, wet, or windy it might be!

Date:

Astronomy

Oct. 21, 2013 Rise Set
Actual Time 10:30 AM AKDT 7:41 PM AKDT
Civil Twilight 9:41 AM AKDT 8:30 PM AKDT
Nautical Twilight 8:46 AM AKDT 9:24 PM AKDT
Astronomical Twilight 7:51 AM AKDT 10:19 PM AKDT
Moon 8:45 PM AKDT (10/21) 2:15 PM AKDT (10/21)
Length of Visible Light 10h 49m
Length of Day
9h 10m
Waning Gibbous, 92% of the Moon is Illuminated
Oct 21
Waning Gibbous
Oct 26
Last Quarter
Nov 3
New
Nov 9
First Quarter
Nov 17
Full

Hourly Weather History & Observations

Time (AKDT) Temp. Windchill Dew Point Humidity Pressure Visibility Wind Dir Wind Speed Gust Speed Precip Events Conditions
12:16 AM 37.4 °F 28.2 °F 35.6 °F 93% 29.42 in 10.0 mi East 16.1 mph - N/A   Overcast
12:36 AM 37.4 °F 28.5 °F 33.8 °F 87% 29.42 in 10.0 mi ESE 15.0 mph - N/A   Overcast
12:56 AM 37.4 °F 28.5 °F 33.8 °F 87% 29.43 in 10.0 mi ESE 15.0 mph - N/A   Overcast
1:16 AM 37.4 °F 28.2 °F 35.6 °F 93% 29.43 in 10.0 mi ESE 16.1 mph - N/A   Overcast
1:36 AM 37.4 °F 28.5 °F 33.8 °F 87% 29.44 in 10.0 mi East 15.0 mph - N/A   Overcast
1:56 AM 37.4 °F 27.8 °F 35.6 °F 93% 29.44 in 10.0 mi ESE 17.3 mph - N/A   Overcast
2:16 AM 37.4 °F 27.2 °F 33.8 °F 87% 29.44 in 10.0 mi East 19.6 mph 23.0 mph N/A   Overcast
2:36 AM 37.4 °F 28.5 °F 35.6 °F 93% 29.45 in 10.0 mi East 15.0 mph - N/A   Overcast
2:56 AM 37.4 °F 28.5 °F 35.6 °F 93% 29.45 in 10.0 mi East 15.0 mph - N/A   Overcast
3:16 AM 37.4 °F 27.8 °F 33.8 °F 87% 29.45 in 10.0 mi ESE 17.3 mph 26.5 mph N/A   Overcast
3:36 AM 37.4 °F 29.3 °F 33.8 °F 87% 29.45 in 10.0 mi East 12.7 mph 20.7 mph N/A   Overcast
3:56 AM 37.4 °F 28.2 °F 35.6 °F 93% 29.46 in 10.0 mi East 16.1 mph 23.0 mph N/A   Overcast
4:16 AM 37.4 °F 28.5 °F 33.8 °F 87% 29.46 in 10.0 mi East 15.0 mph - N/A   Overcast
4:36 AM 37.4 °F 28.5 °F 35.6 °F 93% 29.46 in 10.0 mi East 15.0 mph 20.7 mph N/A   Overcast
4:56 AM 37.4 °F 27.5 °F 33.8 °F 87% 29.46 in 10.0 mi East 18.4 mph 21.9 mph N/A   Overcast
5:16 AM 37.4 °F 27.5 °F 33.8 °F 87% 29.46 in 10.0 mi East 18.4 mph - N/A   Overcast
5:36 AM 37.4 °F 27.2 °F 33.8 °F 87% 29.46 in 10.0 mi East 19.6 mph 26.5 mph N/A   Overcast
5:56 AM 37.4 °F 26.6 °F 33.8 °F 87% 29.47 in 10.0 mi East 21.9 mph 26.5 mph N/A   Overcast
6:16 AM 37.4 °F 26.4 °F 33.8 °F 87% 29.47 in 10.0 mi East 23.0 mph 28.8 mph N/A   Overcast
6:36 AM 37.4 °F 26.6 °F 33.8 °F 87% 29.47 in 10.0 mi East 21.9 mph 27.6 mph N/A   Overcast
6:56 AM 37.4 °F 26.6 °F 33.8 °F 87% 29.47 in 10.0 mi East 21.9 mph 31.1 mph N/A   Overcast
7:16 AM 37.4 °F 26.4 °F 33.8 °F 87% 29.47 in 10.0 mi East 23.0 mph 27.6 mph N/A   Overcast
7:36 AM 37.4 °F 26.4 °F 33.8 °F 87% 29.47 in 10.0 mi East 23.0 mph 31.1 mph N/A   Overcast
7:56 AM 37.4 °F 26.4 °F 33.8 °F 87% 29.47 in 10.0 mi East 23.0 mph 31.1 mph N/A   Overcast
8:16 AM 37.4 °F 26.4 °F 33.8 °F 87% 29.46 in 10.0 mi East 23.0 mph 32.2 mph N/A   Overcast
8:36 AM 37.4 °F 26.6 °F 33.8 °F 87% 29.47 in 10.0 mi East 21.9 mph 31.1 mph N/A   Overcast
8:56 AM 37.4 °F 26.6 °F 33.8 °F 87% 29.47 in 10.0 mi East 21.9 mph 31.1 mph N/A   Overcast
9:16 AM 37.4 °F 26.9 °F 33.8 °F 87% 29.47 in 10.0 mi East 20.7 mph 31.1 mph N/A   Overcast
9:36 AM 35.6 °F 24.2 °F 33.8 °F 93% 29.47 in 10.0 mi East 21.9 mph 26.5 mph N/A   Overcast
9:56 AM 35.6 °F 24.0 °F 33.8 °F 93% 29.47 in 10.0 mi East 23.0 mph - N/A   Overcast
10:16 AM 35.6 °F 24.5 °F 33.8 °F 93% 29.47 in 10.0 mi East 20.7 mph 26.5 mph N/A   Overcast
10:36 AM 35.6 °F 23.7 °F 33.8 °F 93% 29.47 in 10.0 mi East 24.2 mph 29.9 mph N/A   Overcast
10:56 AM 35.6 °F 24.0 °F 33.8 °F 93% 29.48 in 10.0 mi East 23.0 mph 28.8 mph N/A   Overcast
11:16 AM 35.6 °F 24.5 °F 33.8 °F 93% 29.48 in 10.0 mi East 20.7 mph 26.5 mph N/A   Overcast
11:36 AM 35.6 °F 24.0 °F 33.8 °F 93% 29.47 in 10.0 mi East 23.0 mph 28.8 mph N/A   Overcast
11:56 AM 35.6 °F 24.2 °F 33.8 °F 93% 29.47 in 10.0 mi ENE 21.9 mph 26.5 mph N/A   Overcast
12:16 PM 35.6 °F 24.5 °F 33.8 °F 93% 29.47 in 10.0 mi ENE 20.7 mph 27.6 mph N/A   Overcast
12:36 PM 35.6 °F 24.5 °F 33.8 °F 93% 29.47 in 9.0 mi ENE 20.7 mph 26.5 mph N/A   Overcast
12:56 PM 35.6 °F 25.2 °F 32.0 °F 87% 29.47 in 9.0 mi ENE 18.4 mph 25.3 mph 0.01 in   Overcast
1:16 PM 35.6 °F 25.2 °F 33.8 °F 93% 29.47 in 9.0 mi East 18.4 mph - N/A   Overcast
1:36 PM 35.6 °F 27.5 °F 32.0 °F 87% 29.48 in 10.0 mi East 11.5 mph - N/A   Overcast
1:56 PM 35.6 °F 27.1 °F 32.0 °F 87% 29.48 in 10.0 mi East 12.7 mph - N/A   Overcast
2:16 PM 35.6 °F 27.1 °F 33.8 °F 93% 29.48 in 10.0 mi East 12.7 mph - 0.01 in   Overcast
2:36 PM 35.6 °F 25.5 °F 33.8 °F 93% 29.48 in 10.0 mi East 17.3 mph - 0.01 in   Overcast
2:56 PM 33.8 °F 23.5 °F 32.0 °F 93% 29.48 in 10.0 mi East 16.1 mph 21.9 mph 0.01 in   Overcast
3:16 PM 35.6 °F 25.5 °F 32.0 °F 87% 29.47 in 10.0 mi East 17.3 mph - N/A   Overcast
3:36 PM 35.6 °F 25.9 °F 33.8 °F 93% 29.47 in 10.0 mi East 16.1 mph - N/A   Overcast
3:56 PM 35.6 °F 25.5 °F 33.8 °F 93% 29.47 in 10.0 mi East 17.3 mph - N/A   Overcast
4:16 PM 35.6 °F 25.2 °F 33.8 °F 93% 29.47 in 10.0 mi East 18.4 mph 23.0 mph N/A   Overcast
4:36 PM 35.6 °F 25.9 °F 32.0 °F 87% 29.47 in 10.0 mi East 16.1 mph - N/A   Overcast
4:56 PM 35.6 °F 27.5 °F 32.0 °F 87% 29.47 in 9.0 mi East 11.5 mph - N/A   Overcast
5:16 PM 35.6 °F 26.6 °F 33.8 °F 93% 29.46 in 10.0 mi ESE 13.8 mph - 0.01 in   Mostly Cloudy
5:36 PM 35.6 °F 26.2 °F 33.8 °F 93% 29.46 in 10.0 mi East 15.0 mph - 0.01 in   Overcast
5:56 PM 37.4 °F 28.2 °F 35.6 °F 93% 29.45 in 10.0 mi East 16.1 mph - 0.01 in   Mostly Cloudy
6:16 PM 37.4 °F 28.2 °F 33.8 °F 87% 29.46 in 10.0 mi East 16.1 mph - N/A   Mostly Cloudy
6:36 PM 35.6 °F 26.6 °F 33.8 °F 93% 29.46 in 10.0 mi East 13.8 mph - N/A   Overcast
6:56 PM 37.4 °F 29.3 °F 33.8 °F 87% 29.46 in 10.0 mi East 12.7 mph - N/A   Overcast
7:16 PM 37.4 °F 32.1 °F 33.8 °F 87% 29.47 in 10.0 mi East 6.9 mph - N/A   Overcast
7:36 PM 37.4 °F 32.8 °F 33.8 °F 87% 29.47 in 10.0 mi ESE 5.8 mph - N/A   Overcast
7:56 PM 35.6 °F 32.8 °F 33.8 °F 93% 29.48 in 10.0 mi SE 3.5 mph - N/A   Overcast
8:16 PM 37.4 °F 32.1 °F 32.0 °F 81% 29.49 in 10.0 mi SSE 6.9 mph - N/A   Overcast
8:36 PM 35.6 °F 25.5 °F 32.0 °F 87% 29.50 in 10.0 mi SSE 17.3 mph - N/A   Overcast
8:56 PM 35.6 °F 27.5 °F 30.2 °F 81% 29.52 in 10.0 mi SE 11.5 mph - N/A   Scattered Clouds
9:16 PM 35.6 °F 27.5 °F 30.2 °F 81% 29.53 in 10.0 mi SE 11.5 mph - N/A   Mostly Cloudy
9:36 PM 35.6 °F 29.2 °F 30.2 °F 81% 29.54 in 10.0 mi ESE 8.1 mph - N/A   Overcast
9:56 PM 35.6 °F 30.7 °F 30.2 °F 81% 29.55 in 10.0 mi East 5.8 mph - N/A   Mostly Cloudy
10:16 PM 35.6 °F 28.0 °F 30.2 °F 81% 29.55 in 10.0 mi ENE 10.4 mph - N/A   Overcast
10:36 PM 35.6 °F 26.6 °F 32.0 °F 87% 29.56 in 10.0 mi ENE 13.8 mph - N/A   Overcast
10:56 PM 35.6 °F 27.1 °F 33.8 °F 93% 29.56 in 10.0 mi East 12.7 mph - N/A   Overcast
11:16 PM 33.8 °F 27.0 °F 30.2 °F 87% 29.57 in 10.0 mi ESE 8.1 mph - N/A   Mostly Cloudy
11:36 PM 35.6 °F 27.5 °F 30.2 °F 81% 29.58 in 10.0 mi SE 11.5 mph - N/A   Scattered Clouds
11:56 PM 35.6 °F 28.6 °F 32.0 °F 87% 29.59 in 10.0 mi SE 9.2 mph - N/A   Mostly Cloudy